This is the latest recevied weather packets stored in our database for station/object K7YVO. If no packets are shown the sender has not sent any weather packets the latest 10 day(s).
| Time | Temp. | Humidity | Pressure | Rain* | Wind** | Luminosity | Snow |
|---|---|---|---|---|---|---|---|
| 1777995278 | 10.56° C | 98% | 1018.2 hPa | 0 mm | - | 53 W/m² | - |
| 1777994974 | 10.56° C | 98% | 1018.3 hPa | 0 mm | - | 57 W/m² | - |
| 1777994666 | 10.56° C | 98% | 1018.2 hPa | 0 mm | - | 48 W/m² | - |
| 1777994366 | 10.56° C | 98% | 1018.1 hPa | 0 mm | - | 34 W/m² | - |
| 1777994062 | 10.56° C | 98% | 1018.1 hPa | 0 mm | - | 40 W/m² | - |
| 1777993759 | 10.56° C | 98% | 1018.1 hPa | 0 mm | - | 34 W/m² | - |
| 1777993456 | 10.56° C | 98% | 1018 hPa | 0 mm | - | 41 W/m² | - |
| 1777993150 | 10.56° C | 98% | 1017.9 hPa | 0 mm | - | 46 W/m² | - |
| 1777992849 | 10.56° C | 98% | 1017.9 hPa | 0 mm | - | 35 W/m² | - |
| 1777992547 | 10.56° C | 98% | 1018 hPa | 0 mm | - | 33 W/m² | - |
| 1777992245 | 10.56° C | 98% | 1017.8 hPa | 0 mm | - | 40 W/m² | - |
| 1777991942 | 10.56° C | 98% | 1017.8 hPa | 0 mm | - | 30 W/m² | - |
| 1777991639 | 10.56° C | 98% | 1017.6 hPa | 0 mm | - | 25 W/m² | - |
| 1777991336 | 10.56° C | 98% | 1017.7 hPa | 0 mm | - | 21 W/m² | - |
| 1777991034 | 10.56° C | 98% | 1017.6 hPa | 0 mm | - | 17 W/m² | - |
| 1777990730 | 10.56° C | 98% | 1017.7 hPa | 0 mm | - | 17 W/m² | - |
| 1777990428 | 10.56° C | 98% | 1017.5 hPa | 0 mm | - | 16 W/m² | - |
| 1777989821 | 10.56° C | 98% | 1017.5 hPa | 0 mm | - | 13 W/m² | - |
| 1777989518 | 10.56° C | 98% | 1017.3 hPa | 0 mm | - | 11 W/m² | - |
| 1777989214 | 10.56° C | 98% | 1017.4 hPa | 0 mm | - | 9 W/m² | - |
| 1777988910 | 10.56° C | 98% | 1017.4 hPa | 0 mm | - | 10 W/m² | - |
| 1777988607 | 10.56° C | 98% | 1017.4 hPa | 0 mm | - | 7 W/m² | - |
| 1777988304 | 10.56° C | 97% | 1017.3 hPa | 0 mm | - | 6 W/m² | - |
| 1777988001 | 10.56° C | 97% | 1017.3 hPa | 0 mm | - | 5 W/m² | - |
| 1777987696 | 10.56° C | 97% | 1017.3 hPa | 0 mm | - | 4 W/m² | - |
* Rain latest hour (hover to see other rain measurements)
** Current wind speed in m/s (hover to see current wind gust speed)